Home   Weather   Würzburg   Past weeks

Flag for Germany Past Weather in Würzburg, Bavaria, Germany — Yesterday and Last 2 Weeks

Now
41 °F

Passing clouds.


Feels Like: 38 °F
Forecast: 28 / 43 °F
Wind: 5 mph from West

Location: Niederstetten

Current Time: Dec 8, 2016 at 5:29:15 pm

Latest Report: Dec 8, 2016 at 5:00 pm


Visibility: N/A

Pressure: 30.45 "Hg

Humidity: 57%

Dew Point: 27 °F

Location of WürzburgLocation

Past Weather in Würzburg — Graph

°F

Würzburg Temperature Yesterday

Maximum temperature yesterday: 30 °F (at 2:20 pm)
Minimum temperature yesterday: 23 °F (at 6:20 am)
Average temperature yesterday: 27 °F

High & Low Weather Summary for the Past Weeks

 TemperatureHumidityPressure
High46 °F (Nov 23, 3:20 pm)100% (Nov 24, 6:20 am)30.54 "Hg (Nov 24, 6:20 am)
Low19 °F (Dec 4, 6:20 am)53% (Dec 8, 1:20 pm)30.01 "Hg (Nov 24, 2:20 am)
Average32 °F87%30.26 "Hg
* Reported Nov 23 3:20 pm — Dec 8 3:20 pm, Würzburg, Weather by CustomWeather, © 2016

Note: Actual official high and low records may vary slightly from our data, if they occured in-between our weather recording intervals... More about our weather records

Advertising

Würzburg Weather History for the Previous 24 Hours

Scroll right to see more
 ConditionsComfort  
Time TempWeatherWind HumidityBarometerVisibility
3:20 pm
Thu, Dec 8
41 °FPartly sunny.6 mph66%30.45 "HgN/A
2:20 pm45 °FPartly sunny.8 mph57%30.45 "HgN/A
1:20 pm43 °FPartly sunny.8 mph53%30.45 "HgN/A
12:20 pm39 °FPartly sunny.5 mph81%30.48 "HgN/A
11:20 am32 °FPartly sunny.2 mph100%30.51 "HgN/A
10:20 am32 °FPartly sunny.5 mph93%30.51 "HgN/A
9:20 am28 °FPartly sunny.5 mph100%30.51 "HgN/A
8:20 am27 °FPartly sunny.6 mph100%30.48 "HgN/A
7:20 am27 °FPassing clouds.5 mph93%30.51 "HgN/A
6:20 am27 °FPassing clouds.2 mph100%30.51 "HgN/A
5:20 am27 °FPassing clouds.5 mph100%30.48 "HgN/A
4:20 am28 °FChilly.5 mph93%30.48 "HgN/A
3:20 am27 °FChilly.5 mph100%30.51 "HgN/A
2:20 am27 °FChilly.2 mph100%30.51 "HgN/A
1:20 am28 °FPassing clouds.1 mph93%30.51 "HgN/A
12:20 am28 °FPassing clouds.3 mph93%30.51 "HgN/A
11:20 pm
Wed, Dec 7
28 °FPassing clouds.5 mph93%30.54 "HgN/A
10:20 pm27 °FPassing clouds.3 mph100%30.54 "HgN/A
9:20 pm27 °FPassing clouds.2 mph100%30.54 "HgN/A
8:20 pm28 °FPassing clouds.2 mph93%30.54 "HgN/A
7:20 pm28 °FPassing clouds.3 mph100%30.51 "Hg5 mi
6:20 pm28 °FIce fog.2 mph100%30.51 "Hg3 mi
5:20 pm28 °FIce fog.2 mph100%30.51 "Hg2 mi
Weather by CustomWeather, © 2016

See weather overviewHow to use our weather pages